Weather History for KHRX - April, 2014

Change the Weather History Date:

Sunday, April 27, 2014

  Actual Average (KAMA) Record (KAMA)
Temperature  
Mean Temperature 58 °F 60 °F  
Max Temperature 72 °F 74 °F 92 °F (1927)
Min Temperature 47 °F 45 °F 30 °F (1995)
Degree Days  
Heating Degree Days 6 6  
Month to date heating degree days 263  
Since 1 July heating degree days 4072  
Cooling Degree Days 0 1  
Month to date cooling degree days 13  
Year to date cooling degree days 15  
Growing Degree Days 8 (Base 50)    
Moisture  
Dew Point 23 °F    
Average Humidity 26    
Maximum Humidity 50    
Minimum Humidity 13    
Precipitation  
Precipitation 0.00 in 0.05 in 1.71 in (2015)
Month to date precipitation 1.25  
Year to date precipitation 3.92  
Snow  
Snow 0.00 in 0.00 in T in (1998)
Month to date snowfall 0.7  
Since 1 July snowfall 17.6  
Snow Depth -    
Sea Level Pressure  
Sea Level Pressure 29.52 in    
Wind  
Wind Speed 30 mph (West)    
Max Wind Speed 40 mph    
Max Gust Speed 52 mph    
Visibility 7 miles    
Events      
T = Trace of Precipitation, MM = Missing Value Source: NWS Daily Summary

Daily Weather History Graph

Daily Weather History Graph

Search for Another Location

Airport or City:

Trip Planner

Search our weather history database for the weather conditions in past years. The results will help you decide how hot, cold, wet, or windy it might be!

Date:

Astronomy

Apr. 27, 2014 Rise Set
Actual Time 7:02 AM CDT 8:31 PM CDT
Civil Twilight 6:36 AM CDT 8:58 PM CDT
Nautical Twilight 6:04 AM CDT 9:30 PM CDT
Astronomical Twilight 5:30 AM CDT 10:03 PM CDT
Moon 6:00 AM CDT (4/27) 7:10 PM CDT (4/27)
Length of Visible Light 14h 21m
Length of Day
13h 28m
Waning Crescent, 3% of the Moon is Illuminated
Apr 27
Waning Crescent
Apr 29
New
May 6
First Quarter
May 14
Full
May 21
Last Quarter

Hourly Weather History & Observations

Time (CDT) Temp. Dew Point Humidity Pressure Visibility Wind Dir Wind Speed Gust Speed Precip Events Conditions
12:15 AM 64.9 °F 30.0 °F 27% 29.58 in 3.0 mi West 38.0 mph 49.5 mph N/A   Haze
12:35 AM 61.2 °F 31.1 °F 32% 29.58 in 2.5 mi West 34.5 mph 51.8 mph N/A   Haze
1:15 AM 58.5 °F 30.2 °F 34% 29.62 in 10.0 mi West 24.2 mph 38.0 mph N/A   Overcast
1:35 AM 58.1 °F 30.0 °F 34% 29.61 in 10.0 mi West 21.9 mph - N/A   Overcast
1:55 AM 57.7 °F 28.9 °F 33% 29.61 in 10.0 mi West 31.1 mph 35.7 mph N/A   Mostly Cloudy
2:15 AM 56.7 °F 26.4 °F 31% 29.60 in 10.0 mi West 25.3 mph 35.7 mph N/A   Mostly Cloudy
2:35 AM 55.6 °F 24.8 °F 30% 29.60 in 10.0 mi West 25.3 mph 32.2 mph N/A   Overcast
2:55 AM 55.4 °F 23.5 °F 29% 29.60 in 10.0 mi West 25.3 mph 38.0 mph N/A   Overcast
3:15 AM 54.0 °F 23.7 °F 31% 29.59 in 10.0 mi West 28.8 mph 34.5 mph N/A   Mostly Cloudy
3:35 AM 53.1 °F 22.8 °F 31% 29.60 in 10.0 mi West 25.3 mph 38.0 mph N/A   Clear
3:55 AM 52.0 °F 23.0 °F 32% 29.60 in 10.0 mi West 32.2 mph 41.4 mph N/A   Clear
4:15 AM 50.9 °F 23.4 °F 34% 29.60 in 10.0 mi West 26.5 mph 36.8 mph N/A   Clear
4:35 AM 50.4 °F 22.8 °F 34% 29.60 in 10.0 mi North - - N/A   Clear
4:55 AM 50.0 °F 22.3 °F 34% 29.60 in 10.0 mi North - - N/A   Clear
5:15 AM 49.6 °F 22.5 °F 34% 29.58 in 10.0 mi North - - N/A   Clear
5:35 AM 48.7 °F 23.0 °F 36% 29.57 in 10.0 mi North - - N/A   Clear
5:55 AM 48.4 °F 23.7 °F 38% 29.56 in 10.0 mi WSW 20.7 mph 26.5 mph N/A   Clear
6:15 AM 47.8 °F 24.4 °F 40% 29.55 in 10.0 mi WSW 20.7 mph 28.8 mph N/A   Clear
6:35 AM 47.1 °F 24.3 °F 41% 29.54 in 10.0 mi WSW 18.4 mph 26.5 mph N/A   Clear
6:55 AM 47.5 °F 23.9 °F 40% 29.53 in 10.0 mi North - - N/A   Clear
7:15 AM 47.3 °F 23.5 °F 39% 29.53 in 10.0 mi WSW 20.7 mph 25.3 mph N/A   Clear
7:35 AM 49.3 °F 23.0 °F 36% 29.52 in 10.0 mi WSW 32.2 mph - N/A   Clear
7:55 AM 50.5 °F 22.8 °F 34% 29.51 in 5.0 mi North - - N/A   Haze
8:15 AM 51.4 °F 23.0 °F 33% 29.51 in 7.0 mi North - - N/A   Clear
8:35 AM 52.3 °F 23.4 °F 32% 29.51 in 7.0 mi North - - N/A   Clear
9:15 AM 54.7 °F 23.9 °F 30% 29.50 in 7.0 mi WSW 34.5 mph 44.9 mph N/A   Clear
9:35 AM 56.5 °F 24.6 °F 29% 29.50 in 4.0 mi WSW 36.8 mph 46.0 mph N/A   Haze
9:55 AM 58.3 °F 24.8 °F 28% 29.49 in 4.0 mi WSW 36.8 mph 44.9 mph N/A   Haze
10:15 AM 59.9 °F 25.5 °F 27% 29.50 in 1.5 mi WSW 31.1 mph 46.0 mph N/A   Haze
10:35 AM 61.0 °F 25.7 °F 26% 29.49 in 1.5 mi WSW 39.1 mph 48.3 mph N/A   Haze
11:15 AM 63.5 °F 25.5 °F 24% 29.49 in 2.5 mi WSW 38.0 mph 47.2 mph N/A   Haze
11:35 AM 64.6 °F 24.3 °F 22% 29.48 in 3.0 mi WSW 38.0 mph 44.9 mph N/A   Haze
11:55 AM 66.4 °F 23.4 °F 20% 29.48 in 3.0 mi West 40.3 mph 47.2 mph N/A   Haze
12:15 PM 67.3 °F 23.5 °F 19% 29.48 in 4.0 mi West 36.8 mph 43.7 mph N/A   Haze
12:35 PM 68.7 °F 21.6 °F 17% 29.47 in 3.0 mi West 35.7 mph 48.3 mph N/A   Haze
12:55 PM 68.4 °F 21.7 °F 17% 29.46 in 2.5 mi WSW 35.7 mph 47.2 mph N/A   Haze
1:15 PM 68.7 °F 21.2 °F 17% 29.46 in 2.5 mi West 35.7 mph 48.3 mph N/A   Haze
1:35 PM 68.9 °F 20.5 °F 16% 29.46 in 2.0 mi WSW 36.8 mph 48.3 mph N/A   Haze
1:55 PM 70.0 °F 19.8 °F 15% 29.45 in 5.0 mi West 33.4 mph 46.0 mph N/A   Haze
2:15 PM 70.2 °F 19.2 °F 14% 29.44 in 2.5 mi West 34.5 mph 46.0 mph N/A   Haze
2:35 PM 70.5 °F 18.9 °F 14% 29.45 in 3.0 mi West 36.8 mph 51.8 mph N/A   Haze
2:55 PM 70.7 °F 18.3 °F 14% 29.45 in 2.0 mi West 40.3 mph 50.6 mph N/A   Haze
3:15 PM 70.7 °F 18.1 °F 14% 29.45 in 1.8 mi West 40.3 mph 51.8 mph N/A   Haze
3:35 PM 69.8 °F 17.4 °F 14% 29.45 in 1.2 mi WSW 38.0 mph 49.5 mph N/A   Haze
3:55 PM 70.0 °F 17.4 °F 13% 29.45 in 4.0 mi WSW 34.5 mph 44.9 mph N/A   Haze
4:15 PM 70.0 °F 17.4 °F 13% 29.44 in 10.0 mi West 28.8 mph 41.4 mph N/A   Mostly Cloudy
4:35 PM 70.5 °F 17.1 °F 13% 29.43 in 7.0 mi West 32.2 mph 42.6 mph N/A   Clear
4:55 PM 70.5 °F 17.1 °F 13% 29.44 in 5.0 mi WSW 40.3 mph 47.2 mph N/A   Haze
5:15 PM 69.8 °F 16.3 °F 13% 29.44 in 5.0 mi West 28.8 mph 43.7 mph N/A   Haze
5:35 PM 70.3 °F 17.2 °F 13% 29.43 in 10.0 mi West 26.5 mph 44.9 mph N/A   Mostly Cloudy
5:55 PM 70.2 °F 17.6 °F 14% 29.43 in 10.0 mi WSW 31.1 mph 43.7 mph N/A   Mostly Cloudy
6:15 PM 69.3 °F 18.9 °F 15% 29.45 in 10.0 mi West 33.4 mph 43.7 mph N/A   Mostly Cloudy
6:35 PM 68.7 °F 19.2 °F 15% 29.46 in 7.0 mi West 32.2 mph 47.2 mph N/A   Scattered Clouds
6:55 PM 68.0 °F 17.6 °F 15% 29.47 in 10.0 mi West 32.2 mph 43.7 mph N/A   Clear
7:15 PM 66.6 °F 16.3 °F 15% 29.48 in 5.0 mi West 36.8 mph 46.0 mph N/A   Haze
7:35 PM 65.8 °F 16.3 °F 15% 29.49 in 10.0 mi West 34.5 mph 41.4 mph N/A   Scattered Clouds
7:55 PM 64.9 °F 16.5 °F 15% 29.50 in 10.0 mi West 32.2 mph 39.1 mph N/A   Clear
8:15 PM 63.7 °F 17.8 °F 17% 29.51 in 10.0 mi West 28.8 mph 35.7 mph N/A   Clear
8:55 PM 61.2 °F 17.2 °F 18% 29.53 in 10.0 mi West 24.2 mph 33.4 mph N/A   Clear
9:15 PM 59.9 °F 16.0 °F 18% 29.54 in 10.0 mi West 20.7 mph 25.3 mph N/A   Clear
9:35 PM 59.2 °F 17.2 °F 20% 29.55 in 10.0 mi West 18.4 mph 26.5 mph N/A   Clear
9:55 PM 58.1 °F 17.6 °F 21% 29.56 in 10.0 mi West 16.1 mph - N/A   Clear
10:15 PM 57.2 °F 17.1 °F 21% 29.58 in 10.0 mi West 12.7 mph - N/A   Scattered Clouds
10:35 PM 56.8 °F 30.7 °F 37% 29.60 in 10.0 mi NNE 23.0 mph 27.6 mph N/A   Mostly Cloudy
10:55 PM 55.4 °F 34.9 °F 46% 29.62 in 10.0 mi NE 9.2 mph 18.4 mph N/A   Overcast
11:15 PM 54.3 °F 34.9 °F 48% 29.64 in 10.0 mi NNE 18.4 mph 24.2 mph N/A   Overcast
11:35 PM 52.9 °F 34.0 °F 49% 29.66 in 10.0 mi NNE 13.8 mph 21.9 mph N/A   Mostly Cloudy
11:55 PM 52.0 °F 33.8 °F 50% 29.67 in 10.0 mi North - - N/A   Mostly Cloudy